Regional Weather Roundup
Issued by NWS

Home | Current Version | Previous Version | Graphics & Text | Print | Product List | Glossary On
Versions: 1 2 3 4 5 6 7 8 9 10 11 12 13 14 15 16 17 18 19 20 21 22 23 24 25 26 27 28 29 30 31 32 33 34 35 36 37 38 39 40 41 42 43 44 45 46 47 48 49 50
000
ASUS44 KMEG 220600
RWRTN
TENNESSEE HOURLY STATE WEATHER ROUNDUP
NATIONAL WEATHER SERVICE MEMPHIS TN
1200 AM CST MON DEC 22 2014

TNZ002-004-019-021-049-052-054-088>092-220700-
WEST TENNESSEE

CITY           SKY/WX    TMP DP  RH WIND       PRES   REMARKS
MEMPHIS INTL   MOCLDY    47  41  80 SE12      29.91F
NWS MEMPHIS      N/A     46 N/A N/A MISG        N/A
JACKSON        CLEAR     42  38  85 CALM      29.95F
DYERSBURG      CLOUDY    43  28  56 E8        29.94F
PARIS          MOCLDY    37  34  87 SE7       29.96F WCI  32
LEXINGTON      CLOUDY    37  36  93 SE3       29.95F
SAVANNAH       CLOUDY    43  43 100 S5        29.96F
$$

TNZ008-025-027-028-033-062-065-066-220700-
NORTH MIDDLE TENNESSEE

CITY           SKY/WX    TMP DP  RH WIND       PRES   REMARKS
NASHVILLE      PTCLDY    43  39  86 SE8       30.01F
CLARKSVILLE    CLEAR     38  31  76 SE3       29.98F
CROSSVILLE     CLOUDY    45  37  73 VRB3      30.04F
$$

TNZ061-075-076-078-094-096-097-220700-
SOUTH MIDDLE TENNESSEE

CITY           SKY/WX    TMP DP  RH WIND       PRES   REMARKS
WINCHESTER     CLOUDY    46  45  93 S9        30.03F
SHELBYVILLE    CLOUDY    48  45  87 S7        30.01F
$$

TNZ017-018-042-046-047-220700-
NORTHEAST TENNESSEE

CITY           SKY/WX    TMP DP  RH WIND       PRES   REMARKS
TRI CITIES     MOCLDY    36  33  89 CALM      30.10F
ELIZABETHTON   PTCLDY    39  34  81 E6        30.10F WCI  35
$$

TNZ012-013-036-069-073-074-220700-
CENTRAL EAST TENNESSEE

CITY           SKY/WX    TMP DP  RH WIND       PRES   REMARKS
KNOXVILLE      CLOUDY    43  37  79 CALM      30.07F
OAK RIDGE      CLOUDY    45  37  73 CALM      30.08F
GATLINBURG     CLOUDY    36  34  93 CALM      30.06F
$$

TNZ083-085-099-220700-
SOUTHEAST TENNESSEE

CITY           SKY/WX    TMP DP  RH WIND       PRES   REMARKS
CHATTANOOGA    CLOUDY    46  40  79 CALM      30.07F
$$

SKY/WX REPORTED AS FAIR MEANS FEW OR NO CLOUDS BELOW
12 THOUSAND FEET.



USA.gov is the U.S. government's official web portal to all federal, state and local government web resources and services.